When you browse on this site, cookies collect data to enhance your experience and personalize the content and advertising you see.
Visit our Privacy Policy to learn more. By continuing to use the site, you agree to this use of cookies and data.
  • In Hungary
  • List of Countries
  • For 7 days
  • Water Temperature
  • Satellite Maps
  • Weather Map
  • News
  • Weather Widgets
  • user-avatar
    Login

    Hourly Weather Huangzhuang

    Today, 18 December, Tuesday

    Time Temperature Precipitation Wind Pressure Humidity
    00:00 +1°C° 0 mm 2 mps 764 mmHg 34%
    01:00 +1°C° 0 mm 2 mps 764 mmHg 35%
    02:00 +1°C° 0 mm 2 mps 764 mmHg 37%
    03:00 -1°C° 0 mm 2 mps 764 mmHg 37%
    04:00 -1°C° 0 mm 2 mps 764 mmHg 37%
    05:00 -1°C° 0 mm 2 mps 764 mmHg 37%
    06:00 -1°C° 0 mm 3 mps 764 mmHg 34%
    07:00 -1°C° 0 mm 3 mps 765 mmHg 32%
    08:00 -1°C° 0 mm 3 mps 765 mmHg 31%
    09:00 +1°C° 0 mm 3 mps 765 mmHg 27%
    10:00 +3°C° 0 mm 4 mps 765 mmHg 24%
    11:00 +5°C° 0 mm 4 mps 766 mmHg 20%
    12:00 +6°C° 0 mm 4 mps 765 mmHg 19%
    13:00 +7°C° 0 mm 3 mps 765 mmHg 19%
    14:00 +8°C° 0 mm 2 mps 764 mmHg 18%
    15:00 +7°C° 0 mm 2 mps 764 mmHg 20%
    16:00 +6°C° 0 mm 2 mps 764 mmHg 22%
    17:00 +5°C° 0 mm 1 mps 764 mmHg 24%
    18:00 +5°C° 0 mm 1 mps 764 mmHg 26%
    19:00 +4°C° 0 mm 1 mps 764 mmHg 28%
    20:00 +4°C° 0 mm 1 mps 764 mmHg 29%
    21:00 +3°C° 0 mm 1 mps 764 mmHg 32%
    22:00 +3°C° 0 mm 1 mps 764 mmHg 34%
    23:00 +3°C° 0 mm 1 mps 765 mmHg 36%

    Tomorrow, 19 December, Wednesday

    Time Temperature Precipitation Wind Pressure Humidity
    00:00 +2°C° 0 mm 1 mps 765 mmHg 38%
    01:00 +2°C° 0 mm 1 mps 765 mmHg 39%
    02:00 +2°C° 0 mm 1 mps 765 mmHg 40%
    03:00 +1°C° 0 mm 1 mps 764 mmHg 40%
    04:00 +1°C° 0 mm 1 mps 764 mmHg 39%
    05:00 0°C° 0 mm 1 mps 764 mmHg 38%
    06:00 -2°C° 0 mm 2 mps 765 mmHg 37%
    07:00 -2°C° 0 mm 2 mps 765 mmHg 35%
    08:00 -2°C° 0 mm 2 mps 766 mmHg 34%
    09:00 +1°C° 0 mm 3 mps 766 mmHg 30%
    10:00 +3°C° 0 mm 4 mps 766 mmHg 26%
    11:00 +5°C° 0 mm 5 mps 767 mmHg 23%
    12:00 +6°C° 0 mm 5 mps 766 mmHg 22%
    13:00 +6°C° 0 mm 5 mps 766 mmHg 22%
    14:00 +7°C° 0 mm 4 mps 766 mmHg 22%
    15:00 +5°C° 0 mm 4 mps 766 mmHg 24%
    16:00 +4°C° 0 mm 3 mps 766 mmHg 27%
    17:00 +4°C° 0 mm 2 mps 766 mmHg 29%
    18:00 +3°C° 0 mm 2 mps 767 mmHg 30%
    19:00 +3°C° 0 mm 2 mps 767 mmHg 32%
    20:00 +3°C° 0 mm 1 mps 767 mmHg 33%
    21:00 +3°C° 0 mm 1 mps 768 mmHg 33%
    22:00 +2°C° 0 mm 1 mps 768 mmHg 34%
    23:00 +2°C° 0 mm 1 mps 768 mmHg 35%

    Day after tomorrow, 20 December, Thursday

    Time Temperature Precipitation Wind Pressure Humidity
    00:00 +1°C° 0 mm 1 mps 768 mmHg 35%
    01:00 0°C° 0 mm 0 mps 768 mmHg 36%
    02:00 0°C° 0 mm 0 mps 768 mmHg 37%
    03:00 +1°C° 0 mm 1 mps 768 mmHg 37%
    04:00 +1°C° 0 mm 1 mps 768 mmHg 37%
    05:00 +1°C° 0 mm 1 mps 767 mmHg 37%
    06:00 +1°C° 0 mm 1 mps 768 mmHg 37%
    07:00 +1°C° 0 mm 1 mps 768 mmHg 38%
    08:00 +1°C° 0 mm 1 mps 768 mmHg 38%
    09:00 +2°C° 0 mm 1 mps 768 mmHg 36%
    10:00 +4°C° 0 mm 1 mps 769 mmHg 34%
    11:00 +6°C° 0 mm 1 mps 769 mmHg 32%
    12:00 +6°C° 0 mm 1 mps 768 mmHg 33%
    13:00 +7°C° 0 mm 1 mps 768 mmHg 33%
    14:00 +8°C° 0 mm 1 mps 767 mmHg 33%
    15:00 +6°C° 0 mm 2 mps 767 mmHg 37%
    16:00 +6°C° 0 mm 2 mps 767 mmHg 42%
    17:00 +5°C° 0 mm 2 mps 766 mmHg 46%
    18:00 +5°C° 0 mm 1 mps 767 mmHg 50%
    19:00 +5°C° 0 mm 1 mps 767 mmHg 53%
    20:00 +5°C° 0 mm 1 mps 767 mmHg 57%
    21:00 +5°C° 0 mm 1 mps 767 mmHg 59%
    22:00 +5°C° 0 mm 1 mps 767 mmHg 61%
    23:00 +5°C° 0 mm 1 mps 767 mmHg 63%

    21 December, Friday

    Time Temperature Precipitation Wind Pressure Humidity
    00:00 +4°C° 0 mm 1 mps 767 mmHg 65%
    01:00 +4°C° 0 mm 1 mps 767 mmHg 66%
    02:00 +4°C° 0 mm 1 mps 767 mmHg 68%
    03:00 +3°C° 0 mm 1 mps 767 mmHg 69%
    04:00 +3°C° 0 mm 1 mps 767 mmHg 70%
    05:00 +2°C° 0 mm 1 mps 766 mmHg 71%
    06:00 +2°C° 0 mm 1 mps 767 mmHg 69%
    07:00 +1°C° 0 mm 2 mps 767 mmHg 67%
    08:00 -1°C° 0 mm 2 mps 768 mmHg 65%
    09:00 +2°C° 0 mm 2 mps 768 mmHg 54%
    10:00 +3°C° 0 mm 3 mps 768 mmHg 42%
    11:00 +5°C° 0 mm 3 mps 769 mmHg 30%
    12:00 +7°C° 0 mm 3 mps 768 mmHg 26%
    13:00 +8°C° 0 mm 3 mps 768 mmHg 23%
    14:00 +9°C° 0 mm 3 mps 768 mmHg 19%
    15:00 +7°C° 0 mm 3 mps 768 mmHg 21%
    16:00 +6°C° 0 mm 2 mps 768 mmHg 23%
    17:00 +6°C° 0 mm 1 mps 768 mmHg 25%
    18:00 +5°C° 0 mm 1 mps 768 mmHg 26%
    19:00 +5°C° 0 mm 1 mps 769 mmHg 27%
    20:00 +4°C° 0 mm 1 mps 769 mmHg 28%
    21:00 +4°C° 0 mm 1 mps 769 mmHg 29%
    22:00 +3°C° 0 mm 2 mps 769 mmHg 30%
    23:00 +2°C° 0 mm 2 mps 770 mmHg 31%

    22 December, Saturday

    Time Temperature Precipitation Wind Pressure Humidity
    00:00 +2°C° 0 mm 2 mps 770 mmHg 32%
    01:00 +2°C° 0 mm 2 mps 770 mmHg 32%
    02:00 +2°C° 0 mm 2 mps 770 mmHg 33%
    03:00 +2°C° 0 mm 2 mps 770 mmHg 33%
    04:00 +2°C° 0 mm 2 mps 770 mmHg 33%
    05:00 +1°C° 0 mm 2 mps 770 mmHg 33%
    06:00 +2°C° 0 mm 2 mps 770 mmHg 32%
    07:00 +2°C° 0 mm 2 mps 771 mmHg 31%
    08:00 +2°C° 0 mm 2 mps 771 mmHg 30%
    09:00 +2°C° 0 mm 3 mps 772 mmHg 26%
    10:00 +4°C° 0 mm 4 mps 772 mmHg 23%
    11:00 +5°C° 0 mm 5 mps 773 mmHg 20%
    12:00 +6°C° 0 mm 5 mps 772 mmHg 19%
    13:00 +6°C° 0 mm 5 mps 772 mmHg 17%
    14:00 +7°C° 0 mm 5 mps 772 mmHg 16%
    15:00 +6°C° 0 mm 4 mps 772 mmHg 18%
    16:00 +4°C° 0 mm 4 mps 773 mmHg 19%
    17:00 +3°C° 0 mm 3 mps 773 mmHg 21%
    18:00 +3°C° 0 mm 3 mps 774 mmHg 21%
    19:00 +2°C° 0 mm 3 mps 775 mmHg 22%
    20:00 0°C° 0 mm 4 mps 775 mmHg 23%
    21:00 0°C° 0 mm 4 mps 776 mmHg 20%
    22:00 -1°C° 0 mm 4 mps 776 mmHg 18%
    23:00 -1°C° 0 mm 4 mps 776 mmHg 15%

    23 December, Sunday

    Time Temperature Precipitation Wind Pressure Humidity
    00:00 -1°C° 0 mm 3 mps 776 mmHg 14%
    01:00 -1°C° 0 mm 3 mps 776 mmHg 13%
    02:00 -2°C° 0 mm 3 mps 777 mmHg 11%
    03:00 -2°C° 0 mm 3 mps 777 mmHg 11%
    04:00 -3°C° 0 mm 2 mps 777 mmHg 10%
    05:00 -3°C° 0 mm 2 mps 776 mmHg 10%
    06:00 -4°C° 0 mm 2 mps 777 mmHg 10%
    07:00 -4°C° 0 mm 2 mps 777 mmHg 9%
    08:00 -4°C° 0 mm 2 mps 777 mmHg 9%
    09:00 -3°C° 0 mm 2 mps 777 mmHg 8%
    10:00 -1°C° 0 mm 2 mps 777 mmHg 7%
    11:00 +2°C° 0 mm 1 mps 777 mmHg 6%
    12:00 +2°C° 0 mm 2 mps 776 mmHg 6%
    13:00 +2°C° 0 mm 2 mps 775 mmHg 6%
    14:00 +3°C° 0 mm 2 mps 774 mmHg 7%
    15:00 +2°C° 0 mm 2 mps 774 mmHg 8%
    16:00 +1°C° 0 mm 2 mps 774 mmHg 9%
    17:00 +1°C° 0 mm 2 mps 774 mmHg 10%
    18:00 +1°C° 0 mm 1 mps 774 mmHg 10%
    19:00 +1°C° 0 mm 1 mps 774 mmHg 11%
    20:00 0°C° 0 mm 1 mps 774 mmHg 11%
    21:00 0°C° 0 mm 1 mps 774 mmHg 12%
    22:00 0°C° 0 mm 1 mps 773 mmHg 13%
    23:00 -1°C° 0 mm 1 mps 773 mmHg 13%
    Show more